Regional Weather Roundup
Issued by NWS

Home | Current Version | Previous Version | Graphics & Text | Print | Product List | Glossary On
Versions: 1 2 3 4 5 6 7 8 9 10 11 12 13 14 15 16 17 18 19 20 21 22 23 24 25 26 27 28 29 30 31 32 33 34 35 36 37 38 39 40 41 42 43 44 45 46 47 48 49 50
000
ASUS43 KIND 031059
RWRIN

WEATHER ROUNDUP FOR INDIANA
NATIONAL WEATHER SERVICE INDIANAPOLIS IN
700 AM EDT FRI JUL 03 2015

NOTE: "FAIR" INDICATES FEW OR NO CLOUDS BELOW 12,000 FEET WITH NO
SIGNIFICANT WEATHER AND/OR OBSTRUCTIONS TO VISIBILITY.

* - STATION DOES NOT REPORT WEATHER SUCH AS PRECIPITATION OR FOG.

+ - STATION NOT QUALITY CONTROLLED BY THE NATIONAL WEATHER SERVICE.
    USE DATA WITH CAUTION...ESPECIALLY DEWPOINT AND RELATIVE
    HUMIDITY OBSERVATIONS.

INZ001>003-010>013-019-020-031200-
NORTHWEST INDIANA

CITY           SKY/WX    TMP DP  RH WIND       PRES   REMARKS
GARY /AIRPORT/ CLOUDY    61  57  88 CALM      29.96S
RENSSELAER +   MOCLDY    59  57  94 NE7       29.94S

$$

LMZ046-743>745-031200-
SOUTHERN LAKE MICHIGAN

STATION/POSITION TIME  TEMP    WIND        PRES    WAVE
                       AIR SEA DIR/SP/G            HT
                 (UTC) (F)     (DEG/KT/KT) (MB)    (FT)
BURNS HARBOR     1000   62      80/  8/ 10 1014.9S
MICHIGAN CITY    1000   60     100/  7/ 10   N/A
5NW MICH CITY    1000   61 63   70/  4/  6   N/A     2

$$

INZ004-005-014>016-021>024-031200-
NORTH CENTRAL INDIANA

CITY           SKY/WX    TMP DP  RH WIND       PRES   REMARKS
ELKHART        CLEAR     57  54  88 CALM      29.98
GOSHEN         MOCLDY    58  55  90 E3        29.97R
SOUTH BEND     MOCLDY    58  54  86 NE3       29.98R

$$

INZ006>009-017-018-025>027-031200-
NORTHEAST INDIANA

CITY           SKY/WX    TMP DP  RH WIND       PRES   REMARKS
ANGOLA *+        N/A     55  54  94 E5        29.98S
FORT WAYNE     MOCLDY    59  55  87 E7        29.97R

$$

INZ028-029-035-036-043>045-051>053-031200-
WEST CENTRAL INDIANA

CITY           SKY/WX    TMP DP  RH WIND       PRES   REMARKS
CRAWFORDSVL +  MOCLDY    61  54  79 E6        29.91R
GREENCASTLE +  CLOUDY    63  55  77 E6        29.90R
LAFAYETTE      MOCLDY    62  56  80 E9        29.91S
TERRE HAUTE    CLOUDY    68  63  84 NE7       29.88R

$$

INZ030>032-037>040-046>048-054>057-064-065-031200-
CENTRAL INDIANA

CITY           SKY/WX    TMP DP  RH WIND       PRES   REMARKS
GREENWOOD *+   CLOUDY    63  59  88 NE6       29.91R
INDIANAPOLIS   CLOUDY    63  59  87 NE9       29.89R
-EAGLE CREEK   HVY RAIN  61  60  97 NE8       29.91R FOG
KOKOMO *+      CLOUDY    61  54  77 E9        29.93S
MT COMFORT *+  MOCLDY    63 N/A N/A N6        29.92R
SHELBYVILLE    LGT RAIN  65  61  87 NE6       29.89R

$$

INZ033-034-041-042-049-050-058-059-031200-
EAST CENTRAL INDIANA

CITY           SKY/WX    TMP DP  RH WIND       PRES   REMARKS
MUNCIE         MOCLDY    61  54  77 E8        29.93S

$$

INZ060-061-067>069-081>083-085>088-031200-
SOUTHWEST INDIANA

CITY           SKY/WX    TMP DP  RH WIND       PRES   REMARKS
EVANSVILLE     CLOUDY    71  69  93 NW3       29.85R FOG
HUNTINGBURG *+ CLOUDY    70  66  88 NE5       29.85S VSB 1

$$

INZ062-063-066-070>080-084-089>092-031200-
SOUTH CENTRAL AND SOUTHEAST INDIANA

CITY           SKY/WX    TMP DP  RH WIND       PRES   REMARKS
BLOOMINGTON    CLOUDY    68  63  84 E9        29.88R
MADISON *+     CLOUDY    68  64  88 NE8       29.89R
SEYMOUR +      CLOUDY    70  66  88 E7        29.87R

$$




USA.gov is the U.S. government's official web portal to all federal, state and local government web resources and services.